Time,TemperatureF,DewpointF,PressureIn,WindDirection,WindDirectionDegrees,WindSpeedMPH,WindSpeedGustMPH,Humidity,HourlyPrecipIn,Conditions,Clouds,dailyrainin,SoftwareType,DateUTC
2013-03-27 00:05:00,30.5,26.0,30.20,NW,310,12.0,-999.0,83,-99.99,,,0.00,weatherlink.com 1.10,2013-03-27 04:05:00,
2013-03-27 00:20:00,30.5,26.0,30.20,NNW,327,11.0,-999.0,83,-99.99,,,0.00,weatherlink.com 1.10,2013-03-27 04:20:00,
2013-03-27 00:35:00,30.3,26.0,30.20,NW,316,12.0,-999.0,83,-99.99,,,0.00,weatherlink.com 1.10,2013-03-27 04:35:00,
2013-03-27 00:50:00,30.3,26.0,30.20,NW,321,8.0,-999.0,84,-99.99,,,0.00,weatherlink.com 1.10,2013-03-27 04:50:00,
2013-03-27 01:06:00,30.3,26.0,30.20,NNW,328,7.0,-999.0,84,-99.99,,,0.00,weatherlink.com 1.10,2013-03-27 05:06:00,
2013-03-27 01:21:00,30.1,26.0,30.19,NW,326,9.0,-999.0,84,-99.99,,,0.00,weatherlink.com 1.10,2013-03-27 05:21:00,
2013-03-27 01:36:00,30.0,26.0,30.19,NW,314,10.0,-999.0,85,-99.99,,,0.00,weatherlink.com 1.10,2013-03-27 05:36:00,
2013-03-27 02:06:00,30.0,26.0,30.19,NNW,329,12.0,-999.0,84,-99.99,,,0.00,weatherlink.com 1.10,2013-03-27 06:06:00,
2013-03-27 02:36:00,29.8,26.0,30.19,NNW,333,8.0,-999.0,84,-99.99,,,0.00,weatherlink.com 1.10,2013-03-27 06:36:00,
2013-03-27 02:51:00,29.7,25.0,30.19,NNW,328,10.0,-999.0,84,-99.99,,,0.00,weatherlink.com 1.10,2013-03-27 06:51:00,
2013-03-27 03:06:00,29.4,25.0,30.19,NW,323,10.0,-999.0,84,-99.99,,,0.00,weatherlink.com 1.10,2013-03-27 07:06:00,
2013-03-27 03:21:00,29.5,26.0,30.19,NW,324,6.0,-999.0,85,-99.99,,,0.00,weatherlink.com 1.10,2013-03-27 07:21:00,
2013-03-27 03:36:00,29.4,26.0,30.19,NW,306,9.0,-999.0,85,-99.99,,,0.00,weatherlink.com 1.10,2013-03-27 07:36:00,
2013-03-27 03:51:00,29.7,26.0,30.19,NNW,335,9.0,-999.0,85,-99.99,,,0.00,weatherlink.com 1.10,2013-03-27 07:51:00,
2013-03-27 04:07:00,29.9,26.0,30.19,NNW,341,14.0,-999.0,85,-99.99,,,0.00,weatherlink.com 1.10,2013-03-27 08:07:00,
2013-03-27 04:22:00,30.0,26.0,30.19,NNW,334,7.0,-999.0,85,-99.99,,,0.00,weatherlink.com 1.10,2013-03-27 08:22:00,
2013-03-27 04:37:00,29.9,26.0,30.19,NNW,335,7.0,-999.0,85,-99.99,,,0.00,weatherlink.com 1.10,2013-03-27 08:37:00,
2013-03-27 04:52:00,29.8,26.0,30.19,NW,324,9.0,-999.0,86,-99.99,,,0.00,weatherlink.com 1.10,2013-03-27 08:52:00,
2013-03-27 05:07:00,29.6,26.0,30.20,NW,316,7.0,-999.0,86,-99.99,,,0.00,weatherlink.com 1.10,2013-03-27 09:07:00,
2013-03-27 05:22:00,29.5,26.0,30.20,NNW,342,12.0,-999.0,87,-99.99,,,0.00,weatherlink.com 1.10,2013-03-27 09:22:00,
2013-03-27 05:37:00,29.4,26.0,30.20,NW,315,12.0,-999.0,88,-99.99,,,0.00,weatherlink.com 1.10,2013-03-27 09:37:00,
2013-03-27 05:52:00,29.3,26.0,30.20,WNW,299,10.0,-999.0,87,-99.99,,,0.00,weatherlink.com 1.10,2013-03-27 09:52:00,
2013-03-27 06:07:00,29.3,26.0,30.21,North,355,14.0,-999.0,87,-99.99,,,0.00,weatherlink.com 1.10,2013-03-27 10:07:00,
2013-03-27 06:22:00,29.3,26.0,30.21,NNW,329,7.0,-999.0,87,-99.99,,,0.00,weatherlink.com 1.10,2013-03-27 10:22:00,
2013-03-27 06:37:00,28.7,25.0,30.21,NNW,328,8.0,-999.0,86,-99.99,,,0.00,weatherlink.com 1.10,2013-03-27 10:37:00,
2013-03-27 06:52:00,28.4,25.0,30.22,NW,321,8.0,-999.0,86,-99.99,,,0.00,weatherlink.com 1.10,2013-03-27 10:52:00,
2013-03-27 07:08:00,27.9,24.0,30.22,NW,316,9.0,-999.0,86,-99.99,,,0.00,weatherlink.com 1.10,2013-03-27 11:08:00,
2013-03-27 07:23:00,27.5,24.0,30.22,NW,311,5.0,-999.0,87,-99.99,,,0.00,weatherlink.com 1.10,2013-03-27 11:23:00,
2013-03-27 07:39:00,27.6,24.0,30.23,NW,316,8.0,-999.0,87,-99.99,,,0.00,weatherlink.com 1.10,2013-03-27 11:39:00,
2013-03-27 07:53:00,27.6,24.0,30.23,NNW,328,13.0,-999.0,87,-99.99,,,0.00,weatherlink.com 1.10,2013-03-27 11:53:00,
2013-03-27 08:08:00,27.9,24.0,30.23,NNW,329,8.0,-999.0,86,-99.99,,,0.00,weatherlink.com 1.10,2013-03-27 12:08:00,
2013-03-27 08:23:00,28.5,25.0,30.23,NW,311,9.0,-999.0,86,-99.99,,,0.00,weatherlink.com 1.10,2013-03-27 12:23:00,
2013-03-27 08:38:00,29.2,25.0,30.24,NW,319,9.0,-999.0,85,-99.99,,,0.00,weatherlink.com 1.10,2013-03-27 12:38:00,
2013-03-27 08:53:00,29.8,26.0,30.24,NW,315,8.0,-999.0,84,-99.99,,,0.00,weatherlink.com 1.10,2013-03-27 12:53:00,
2013-03-27 09:08:00,30.6,26.0,30.24,NW,323,11.0,-999.0,84,-99.99,,,0.00,weatherlink.com 1.10,2013-03-27 13:08:00,
2013-03-27 09:23:00,31.4,27.0,30.24,NW,319,12.0,-999.0,83,-99.99,,,0.00,weatherlink.com 1.10,2013-03-27 13:23:00,
2013-03-27 09:38:00,32.1,28.0,30.24,NNW,338,9.0,-999.0,83,-99.99,,,0.00,weatherlink.com 1.10,2013-03-27 13:38:00,
2013-03-27 09:54:00,33.0,28.0,30.24,North,355,6.0,-999.0,82,-99.99,,,0.00,weatherlink.com 1.10,2013-03-27 13:54:00,
2013-03-27 10:09:00,33.2,29.0,30.24,NNW,337,8.0,-999.0,83,-99.99,,,0.00,weatherlink.com 1.10,2013-03-27 14:09:00,
2013-03-27 10:24:00,33.6,29.0,30.24,NNW,334,12.0,-999.0,82,-99.99,,,0.00,weatherlink.com 1.10,2013-03-27 14:24:00,
2013-03-27 10:39:00,34.3,29.0,30.24,NW,323,9.0,-999.0,82,-99.99,,,0.00,weatherlink.com 1.10,2013-03-27 14:39:00,
2013-03-27 10:54:00,34.6,29.0,30.24,NNW,339,13.0,-999.0,81,-99.99,,,0.00,weatherlink.com 1.10,2013-03-27 14:54:00,
2013-03-27 11:09:00,35.0,30.0,30.25,NNW,344,12.0,-999.0,81,-99.99,,,0.00,weatherlink.com 1.10,2013-03-27 15:09:00,
2013-03-27 11:39:00,34.6,29.0,30.25,NNW,333,12.0,-999.0,81,-99.99,,,0.00,weatherlink.com 1.10,2013-03-27 15:39:00,
2013-03-27 11:54:00,35.3,30.0,30.25,NNW,327,13.0,-999.0,80,-99.99,,,0.00,weatherlink.com 1.10,2013-03-27 15:54:00,
2013-03-27 12:09:00,35.7,30.0,30.26,NW,318,12.0,-999.0,79,-99.99,,,0.00,weatherlink.com 1.10,2013-03-27 16:09:00,
2013-03-27 12:25:00,35.7,29.0,30.26,NNW,344,11.0,-999.0,78,-99.99,,,0.00,weatherlink.com 1.10,2013-03-27 16:25:00,
2013-03-27 12:40:00,35.6,29.0,30.26,North,355,12.0,-999.0,78,-99.99,,,0.00,weatherlink.com 1.10,2013-03-27 16:40:00,
2013-03-27 12:55:00,35.8,29.0,30.26,North,355,16.0,-999.0,77,-99.99,,,0.00,weatherlink.com 1.10,2013-03-27 16:55:00,
2013-03-27 13:10:00,36.6,29.0,30.26,NNW,344,12.0,-999.0,73,-99.99,,,0.00,weatherlink.com 1.10,2013-03-27 17:10:00,
2013-03-27 13:25:00,36.7,28.0,30.26,NNW,342,12.0,-999.0,71,-99.99,,,0.00,weatherlink.com 1.10,2013-03-27 17:25:00,
2013-03-27 13:40:00,37.0,27.0,30.26,NW,306,16.0,-999.0,67,-99.99,,,0.00,weatherlink.com 1.10,2013-03-27 17:40:00,
2013-03-27 13:55:00,37.5,28.0,30.26,North,355,12.0,-999.0,68,-99.99,,,0.00,weatherlink.com 1.10,2013-03-27 17:55:00,
2013-03-27 14:10:00,38.2,27.0,30.26,NW,326,9.0,-999.0,65,-99.99,,,0.00,weatherlink.com 1.10,2013-03-27 18:10:00,
2013-03-27 14:25:00,38.9,27.0,30.26,NW,321,13.0,-999.0,63,-99.99,,,0.00,weatherlink.com 1.10,2013-03-27 18:25:00,
2013-03-27 14:40:00,38.3,26.0,30.26,NW,317,12.0,-999.0,62,-99.99,,,0.00,weatherlink.com 1.10,2013-03-27 18:40:00,
2013-03-27 14:56:00,38.2,26.0,30.26,NW,321,10.0,-999.0,63,-99.99,,,0.00,weatherlink.com 1.10,2013-03-27 18:56:00,
2013-03-27 15:11:00,37.9,26.0,30.25,NW,318,7.0,-999.0,63,-99.99,,,0.00,weatherlink.com 1.10,2013-03-27 19:11:00,
2013-03-27 15:26:00,38.0,23.0,30.25,NW,306,12.0,-999.0,56,-99.99,,,0.00,weatherlink.com 1.10,2013-03-27 19:26:00,
2013-03-27 16:41:00,37.5,23.0,30.25,NNW,331,18.0,-999.0,55,-99.99,,,0.00,weatherlink.com 1.10,2013-03-27 20:41:00,
2013-03-27 16:56:00,37.7,24.0,30.25,NNW,346,5.0,-999.0,57,-99.99,,,0.00,weatherlink.com 1.10,2013-03-27 20:56:00,
2013-03-27 17:11:00,37.5,24.0,30.25,NW,321,9.0,-999.0,59,-99.99,,,0.00,weatherlink.com 1.10,2013-03-27 21:11:00,
2013-03-27 17:26:00,37.2,24.0,30.26,NW,321,16.0,-999.0,60,-99.99,,,0.00,weatherlink.com 1.10,2013-03-27 21:26:00,
2013-03-27 17:41:00,37.1,24.0,30.26,NNW,342,10.0,-999.0,59,-99.99,,,0.00,weatherlink.com 1.10,2013-03-27 21:41:00,
2013-03-27 17:56:00,36.9,23.0,30.26,NNW,338,15.0,-999.0,58,-99.99,,,0.00,weatherlink.com 1.10,2013-03-27 21:56:00,
2013-03-27 18:12:00,36.4,23.0,30.26,NW,318,15.0,-999.0,59,-99.99,,,0.00,weatherlink.com 1.10,2013-03-27 22:12:00,
2013-03-27 18:27:00,36.3,23.0,30.27,NNW,329,17.0,-999.0,60,-99.99,,,0.00,weatherlink.com 1.10,2013-03-27 22:27:00,
2013-03-27 18:42:00,35.9,22.0,30.27,NNW,338,16.0,-999.0,57,-99.99,,,0.00,weatherlink.com 1.10,2013-03-27 22:42:00,
2013-03-27 18:57:00,35.7,22.0,30.27,NW,313,18.0,-999.0,57,-99.99,,,0.00,weatherlink.com 1.10,2013-03-27 22:57:00,
2013-03-27 19:12:00,35.6,22.0,30.27,NW,322,7.0,-999.0,58,-99.99,,,0.00,weatherlink.com 1.10,2013-03-27 23:12:00,
2013-03-27 19:27:00,35.0,21.0,30.27,NNW,329,9.0,-999.0,58,-99.99,,,0.00,weatherlink.com 1.10,2013-03-27 23:27:00,
2013-03-27 19:42:00,34.4,21.0,30.27,NNW,342,11.0,-999.0,59,-99.99,,,0.00,weatherlink.com 1.10,2013-03-27 23:42:00,
2013-03-27 19:57:00,33.9,21.0,30.27,NNW,343,6.0,-999.0,60,-99.99,,,0.00,weatherlink.com 1.10,2013-03-27 23:57:00,
2013-03-27 20:12:00,33.5,21.0,30.27,NW,326,6.0,-999.0,61,-99.99,,,0.00,weatherlink.com 1.10,2013-03-28 00:12:00,
2013-03-27 20:27:00,33.1,22.0,30.27,NNW,333,5.0,-999.0,63,-99.99,,,0.00,weatherlink.com 1.10,2013-03-28 00:27:00,
2013-03-27 20:42:00,32.7,22.0,30.27,NW,325,8.0,-999.0,64,-99.99,,,0.00,weatherlink.com 1.10,2013-03-28 00:42:00,
2013-03-27 20:57:00,32.5,22.0,30.27,NNW,336,5.0,-999.0,66,-99.99,,,0.00,weatherlink.com 1.10,2013-03-28 00:57:00,
2013-03-27 21:12:00,32.3,23.0,30.27,NNW,342,3.0,-999.0,68,-99.99,,,0.00,weatherlink.com 1.10,2013-03-28 01:12:00,
2013-03-27 21:28:00,32.0,23.0,30.27,NW,325,4.0,-999.0,69,-99.99,,,0.00,weatherlink.com 1.10,2013-03-28 01:28:00,
2013-03-27 21:43:00,31.6,22.0,30.27,NNW,333,3.0,-999.0,69,-99.99,,,0.00,weatherlink.com 1.10,2013-03-28 01:43:00,
2013-03-27 21:58:00,31.6,22.0,30.27,NW,319,7.0,-999.0,69,-99.99,,,0.00,weatherlink.com 1.10,2013-03-28 01:58:00,
2013-03-27 22:13:00,31.6,22.0,30.27,NNW,331,11.0,-999.0,69,-99.99,,,0.00,weatherlink.com 1.10,2013-03-28 02:13:00,
2013-03-27 22:28:00,31.8,23.0,30.27,NW,319,8.0,-999.0,69,-99.99,,,0.00,weatherlink.com 1.10,2013-03-28 02:28:00,
2013-03-27 22:43:00,31.6,23.0,30.27,NNW,329,5.0,-999.0,71,-99.99,,,0.00,weatherlink.com 1.10,2013-03-28 02:43:00,
2013-03-27 22:58:00,31.7,23.0,30.27,NW,319,6.0,-999.0,71,-99.99,,,0.00,weatherlink.com 1.10,2013-03-28 02:58:00,
2013-03-27 23:13:00,31.7,23.0,30.27,NW,323,7.0,-999.0,69,-99.99,,,0.00,weatherlink.com 1.10,2013-03-28 03:13:00,
2013-03-27 23:28:00,31.7,22.0,30.27,NW,314,4.0,-999.0,68,-99.99,,,0.00,weatherlink.com 1.10,2013-03-28 03:28:00,
2013-03-27 23:43:00,31.7,22.0,30.27,NW,319,9.0,-999.0,68,-99.99,,,0.00,weatherlink.com 1.10,2013-03-28 03:43:00,
2013-03-27 23:58:00,31.6,22.0,30.27,NW,316,6.0,-999.0,69,-99.99,,,0.00,weatherlink.com 1.10,2013-03-28 03:58:00,